,,,PA_Meas_PMT16A,,PR_Meas_QMR101_102,,RH_Meas_QMH101,,SR_Meas_QMS101,,TA_Meas_QMH101,,GenWind,,GenWind,
date,time,status,PA,status,PR,status,RH,status,SR,status,TA,status,DirAvg,status,SpdAvg,
2010-03-07, 00:00:04,VALID,1007.03,VALID,0,VALID,95.4602,VALID,0,VALID,24.2662,VALID,10,VALID,0,
2010-03-07, 00:01:04,VALID,1007.03,VALID,0,VALID,95.4526,VALID,0.100563,VALID,24.2662,VALID,10,VALID,0,
2010-03-07, 00:02:04,VALID,1007.04,VALID,0,VALID,95.4526,VALID,0.100563,VALID,24.2486,VALID,10,VALID,0,
2010-03-07, 00:03:04,VALID,1007.01,VALID,0,VALID,95.4678,VALID,0.100563,VALID,24.2486,VALID,10,VALID,0,
2010-03-07, 00:04:04,VALID,1007.02,VALID,0,VALID,95.4602,VALID,0.100563,VALID,24.1884,VALID,10,VALID,0,
2010-03-07, 00:05:04,VALID,1007.04,VALID,0,VALID,95.4526,VALID,0.100563,VALID,24.2291,VALID,10,VALID,0,
2010-03-07, 00:06:04,VALID,1007.01,VALID,0,VALID,95.4602,VALID,0,VALID,24.2273,VALID,10,VALID,0,
2010-03-07, 00:07:04,VALID,1007,VALID,0,VALID,95.4831,VALID,0,VALID,24.2273,VALID,10,VALID,0,
2010-03-07, 00:08:04,VALID,1007.03,VALID,0,VALID,95.506,VALID,0.100563,VALID,24.2468,VALID,10,VALID,0,
2010-03-07, 00:09:04,VALID,1007.04,VALID,0,VALID,95.506,VALID,0,VALID,24.2681,VALID,10,VALID,0,
2010-03-07, 00:10:04,VALID,1007.04,VALID,0,VALID,95.4983,VALID,0,VALID,24.2273,VALID,10,VALID,0,
2010-03-07, 00:11:04,VALID,1007.06,VALID,0,VALID,95.4907,VALID,0,VALID,24.2486,VALID,10,VALID,0,
2010-03-07, 00:12:04,VALID,1007,VALID,0,VALID,95.4983,VALID,0,VALID,24.2486,VALID,10,VALID,0,
2010-03-07, 00:13:04,VALID,1006.97,VALID,0,VALID,95.5212,VALID,0.100563,VALID,24.2486,VALID,10,VALID,0,
2010-03-07, 00:14:04,VALID,1006.98,VALID,0,VALID,95.5136,VALID,0,VALID,24.2468,VALID,10,VALID,0,
2010-03-07, 00:15:05,VALID,1006.96,VALID,0,VALID,95.5212,VALID,0.100563,VALID,24.2273,VALID,10,VALID,0,
2010-03-07, 00:16:05,VALID,1006.95,VALID,0,VALID,95.5212,VALID,0.100563,VALID,24.2078,VALID,10,VALID,0,
2010-03-07, 00:17:05,VALID,1006.89,VALID,0,VALID,95.5212,VALID,0.100563,VALID,24.1884,VALID,10,VALID,0,
2010-03-07, 00:18:05,VALID,1006.89,VALID,0,VALID,95.5288,VALID,0.100563,VALID,24.2097,VALID,10,VALID,0,
2010-03-07, 00:19:05,VALID,1006.85,VALID,0,VALID,95.5288,VALID,0,VALID,24.1689,VALID,10,VALID,0,
2010-03-07, 00:20:05,VALID,1006.84,VALID,0,VALID,95.5441,VALID,0.100563,VALID,24.1707,VALID,10,VALID,0,
2010-03-07, 00:21:05,VALID,1006.78,VALID,0,VALID,95.506,VALID,0.100563,VALID,24.1513,VALID,10,VALID,0,
2010-03-07, 00:22:05,VALID,1006.77,VALID,0,VALID,95.5365,VALID,0,VALID,24.1707,VALID,10,VALID,0,
2010-03-07, 00:23:05,VALID,1006.71,VALID,0,VALID,95.5288,VALID,0,VALID,24.1902,VALID,10,VALID,0,
2010-03-07, 00:24:05,VALID,1006.68,VALID,0,VALID,95.5441,VALID,0.100563,VALID,24.1513,VALID,10,VALID,0,
2010-03-07, 00:25:05,VALID,1006.68,VALID,0,VALID,95.5365,VALID,0,VALID,24.1105,VALID,10,VALID,0,
2010-03-07, 00:26:05,VALID,1006.67,VALID,0,VALID,95.5594,VALID,0,VALID,24.0521,VALID,10,VALID,0,
2010-03-07, 00:27:05,VALID,1006.63,VALID,0,VALID,95.5288,VALID,0,VALID,24.0734,VALID,10,VALID,0,
2010-03-07, 00:28:05,VALID,1006.61,VALID,0,VALID,95.5517,VALID,0,VALID,24.0734,VALID,10,VALID,0,
2010-03-07, 00:29:05,VALID,1006.58,VALID,0,VALID,95.5517,VALID,0,VALID,24.0521,VALID,10,VALID,0,
2010-03-07, 00:30:05,VALID,1006.53,VALID,0,VALID,95.567,VALID,0,VALID,24.0716,VALID,10,VALID,0,
2010-03-07, 00:31:05,VALID,1006.5,VALID,0,VALID,95.5441,VALID,0,VALID,24.091,VALID,10,VALID,0,
2010-03-07, 00:32:05,VALID,1006.44,VALID,0,VALID,95.5822,VALID,0,VALID,24.1123,VALID,10,VALID,0,
2010-03-07, 00:33:05,VALID,1006.4,VALID,0,VALID,95.567,VALID,0,VALID,24.1123,VALID,10,VALID,0,
2010-03-07, 00:34:05,VALID,1006.37,VALID,0,VALID,95.5822,VALID,0.100563,VALID,24.1123,VALID,10,VALID,0,
2010-03-07, 00:35:05,VALID,1006.31,VALID,0,VALID,95.5746,VALID,0,VALID,24.0929,VALID,10,VALID,0,
2010-03-07, 00:36:05,VALID,1006.28,VALID,0,VALID,95.5899,VALID,0,VALID,24.0929,VALID,10,VALID,0,
2010-03-07, 00:37:05,VALID,1006.22,VALID,0,VALID,95.6051,VALID,0,VALID,24.0929,VALID,10,VALID,0,
2010-03-07, 00:38:05,VALID,1006.22,VALID,0,VALID,95.5975,VALID,0.100563,VALID,24.091,VALID,10,VALID,0,
2010-03-07, 00:39:05,VALID,1006.2,VALID,0,VALID,95.628,VALID,0,VALID,24.1105,VALID,10,VALID,0,
2010-03-07, 00:40:05,VALID,1006.17,VALID,0,VALID,95.6204,VALID,0,VALID,24.13,VALID,10,VALID,0,
2010-03-07, 00:41:05,VALID,1006.16,VALID,0,VALID,95.6204,VALID,0,VALID,24.1689,VALID,10,VALID,0,
2010-03-07, 00:42:05,VALID,1006.16,VALID,0,VALID,95.6204,VALID,0.100563,VALID,24.2078,VALID,10,VALID,0,
2010-03-07, 00:43:05,VALID,1006.11,VALID,0,VALID,95.6128,VALID,0.100563,VALID,24.2681,VALID,10,VALID,0,
2010-03-07, 00:44:05,VALID,1006.12,VALID,0,VALID,95.6128,VALID,0,VALID,24.2857,VALID,6,VALID,0,
2010-03-07, 00:45:05,VALID,1006.07,VALID,0,VALID,95.6509,VALID,0.100563,VALID,24.3246,VALID,360,VALID,0,
2010-03-07, 00:46:05,VALID,1006.07,VALID,0,VALID,95.6585,VALID,0,VALID,24.3441,VALID,360,VALID,0,
2010-03-07, 00:47:05,VALID,1006.09,VALID,0,VALID,95.6433,VALID,0,VALID,24.3849,VALID,344,VALID,0.615234,
2010-03-07, 00:48:05,VALID,1006.08,VALID,0,VALID,95.6509,VALID,0,VALID,24.4025,VALID,347,VALID,0.696484,
2010-03-07, 00:49:05,VALID,1006.05,VALID,0,VALID,95.6356,VALID,0,VALID,24.422,VALID,350,VALID,0.391406,
2010-03-07, 00:50:05,VALID,1006.02,VALID,0,VALID,95.628,VALID,0.100563,VALID,24.5017,VALID,350,VALID,0.096875,
2010-03-07, 00:51:05,VALID,1006.02,VALID,0,VALID,95.628,VALID,0,VALID,24.5212,VALID,350,VALID,0,
2010-03-07, 00:52:05,VALID,1006,VALID,0,VALID,95.6204,VALID,0,VALID,24.5193,VALID,350,VALID,0.0503906,
2010-03-07, 00:53:05,VALID,1005.98,VALID,0,VALID,95.5746,VALID,0,VALID,24.5388,VALID,350,VALID,0,
2010-03-07, 00:54:05,VALID,1005.95,VALID,0,VALID,95.567,VALID,0,VALID,24.5582,VALID,350,VALID,0.395703,
2010-03-07, 00:55:05,VALID,1005.92,VALID,0,VALID,95.506,VALID,0,VALID,24.599,VALID,350,VALID,0,
2010-03-07, 00:56:05,VALID,1005.89,VALID,0,VALID,95.4907,VALID,0,VALID,24.5972,VALID,350,VALID,0,
2010-03-07, 00:57:05,VALID,1005.88,VALID,0,VALID,95.4297,VALID,0,VALID,24.5972,VALID,350,VALID,0,
2010-03-07, 00:58:05,VALID,1005.86,VALID,0,VALID,95.3534,VALID,0,VALID,24.6166,VALID,350,VALID,0,
2010-03-07, 00:59:05,VALID,1005.83,VALID,0,VALID,95.2923,VALID,0,VALID,24.5972,VALID,350,VALID,0,
2010-03-07, 01:00:05,VALID,1005.8,VALID,0,VALID,95.2161,VALID,0.100563,VALID,24.5972,VALID,350,VALID,0.00117188,
2010-03-07, 01:01:05,VALID,1005.8,VALID,0,VALID,95.1093,VALID,0,VALID,24.5777,VALID,350,VALID,0,
2010-03-07, 01:02:05,VALID,1005.78,VALID,0,VALID,95.0177,VALID,0.100563,VALID,24.5777,VALID,350,VALID,0,
2010-03-07, 01:03:05,VALID,1005.74,VALID,0,VALID,94.9338,VALID,0,VALID,24.5796,VALID,350,VALID,0,
2010-03-07, 01:04:05,VALID,1005.73,VALID,0,VALID,94.8422,VALID,0,VALID,24.5601,VALID,350,VALID,0,
2010-03-07, 01:05:05,VALID,1005.71,VALID,0,VALID,94.7888,VALID,0.100563,VALID,24.5388,VALID,350,VALID,0,
2010-03-07, 01:06:05,VALID,1005.71,VALID,0,VALID,94.7202,VALID,0.100563,VALID,24.5193,VALID,350,VALID,0,
2010-03-07, 01:07:05,VALID,1005.7,VALID,0,VALID,94.6897,VALID,0,VALID,24.5193,VALID,350,VALID,0,
2010-03-07, 01:08:05,VALID,1005.68,VALID,0,VALID,94.6286,VALID,0,VALID,24.5193,VALID,350,VALID,0,
2010-03-07, 01:09:05,VALID,1005.72,VALID,0,VALID,94.6057,VALID,0.100563,VALID,24.5193,VALID,350,VALID,0,
2010-03-07, 01:10:05,VALID,1005.7,VALID,0,VALID,94.6134,VALID,0,VALID,24.5193,VALID,350,VALID,0,
2010-03-07, 01:11:05,VALID,1005.72,VALID,0,VALID,94.621,VALID,0.100563,VALID,24.5388,VALID,350,VALID,0,
2010-03-07, 01:12:05,VALID,1005.74,VALID,0,VALID,94.621,VALID,0,VALID,24.5388,VALID,350,VALID,0,
2010-03-07, 01:13:05,VALID,1005.76,VALID,0,VALID,94.6668,VALID,0,VALID,24.5582,VALID,350,VALID,0.40625,
2010-03-07, 01:14:05,VALID,1005.73,VALID,0,VALID,94.6744,VALID,0,VALID,24.5582,VALID,350,VALID,0.355078,
2010-03-07, 01:15:05,VALID,1005.76,VALID,0,VALID,94.682,VALID,0,VALID,24.5582,VALID,350,VALID,0.196875,
2010-03-07, 01:16:05,VALID,1005.73,VALID,0,VALID,94.6515,VALID,0,VALID,24.5582,VALID,350,VALID,0.131641,
2010-03-07, 01:17:05,VALID,1005.68,VALID,0,VALID,94.6515,VALID,0,VALID,24.5796,VALID,350,VALID,0.0464844,
2010-03-07, 01:18:05,VALID,1005.66,VALID,0,VALID,94.6591,VALID,0.100563,VALID,24.5601,VALID,350,VALID,0,
2010-03-07, 01:19:05,VALID,1005.58,VALID,0,VALID,94.6439,VALID,0,VALID,24.5601,VALID,350,VALID,0.000390625,
2010-03-07, 01:20:05,VALID,1005.54,VALID,0,VALID,94.6363,VALID,0,VALID,24.5601,VALID,350,VALID,0,
2010-03-07, 01:21:05,VALID,1005.47,VALID,0,VALID,94.6286,VALID,0.100563,VALID,24.5406,VALID,350,VALID,0.373828,
2010-03-07, 01:22:05,VALID,1005.44,VALID,0,VALID,94.6057,VALID,0.100563,VALID,24.4804,VALID,350,VALID,0.477734,
2010-03-07, 01:23:05,VALID,1005.41,VALID,0,VALID,94.5142,VALID,0,VALID,24.422,VALID,350,VALID,0.679297,
2010-03-07, 01:24:05,VALID,1005.39,VALID,0,VALID,94.4379,VALID,0,VALID,24.3636,VALID,357,VALID,0.58125,
2010-03-07, 01:25:05,VALID,1005.37,VALID,0,VALID,94.415,VALID,0,VALID,24.3246,VALID,359,VALID,0.517969,
2010-03-07, 01:26:05,VALID,1005.33,VALID,0,VALID,94.4608,VALID,0,VALID,24.3052,VALID,359,VALID,0.321094,
2010-03-07, 01:27:05,VALID,1005.31,VALID,0,VALID,94.4913,VALID,0.100563,VALID,24.2662,VALID,359,VALID,0.403906,
2010-03-07, 01:28:05,VALID,1005.33,VALID,0,VALID,94.56,VALID,0.100563,VALID,24.2468,VALID,12,VALID,0.566797,
2010-03-07, 01:29:05,VALID,1005.34,VALID,0,VALID,94.6057,VALID,0,VALID,24.2681,VALID,20,VALID,0.585938,
2010-03-07, 01:30:05,VALID,1005.33,VALID,0,VALID,94.6668,VALID,0.100563,VALID,24.2486,VALID,20,VALID,0.514453,
2010-03-07, 01:31:05,VALID,1005.34,VALID,0,VALID,94.7125,VALID,0.100563,VALID,24.2486,VALID,20,VALID,0.250391,
2010-03-07, 01:32:05,VALID,1005.32,VALID,0,VALID,94.7507,VALID,0.100563,VALID,24.2078,VALID,20,VALID,0,
2010-03-07, 01:33:05,VALID,1005.32,VALID,0,VALID,94.7812,VALID,0,VALID,24.1884,VALID,20,VALID,0,
2010-03-07, 01:34:05,VALID,1005.32,VALID,0,VALID,94.8194,VALID,0.100563,VALID,24.1884,VALID,20,VALID,0,
2010-03-07, 01:35:05,VALID,1005.3,VALID,0,VALID,94.8651,VALID,0,VALID,24.1689,VALID,20,VALID,0,
2010-03-07, 01:36:05,VALID,1005.28,VALID,0,VALID,94.8728,VALID,0,VALID,24.1902,VALID,20,VALID,0.0929687,
2010-03-07, 01:37:05,VALID,1005.29,VALID,0,VALID,94.9033,VALID,0,VALID,24.1689,VALID,20,VALID,0.0601562,
2010-03-07, 01:38:05,VALID,1005.26,VALID,0,VALID,94.9033,VALID,0.100563,VALID,24.1494,VALID,20,VALID,0.719141,
2010-03-07, 01:39:05,VALID,1005.24,VALID,0,VALID,94.9033,VALID,0,VALID,24.091,VALID,20,VALID,0.603906,
2010-03-07, 01:40:05,VALID,1005.19,VALID,0,VALID,94.888,VALID,0,VALID,24.0326,VALID,20,VALID,0.644141,
2010-03-07, 01:41:05,VALID,1005.23,VALID,0,VALID,94.9033,VALID,0,VALID,24.0345,VALID,20,VALID,0.614062,
2010-03-07, 01:42:05,VALID,1005.22,VALID,0,VALID,94.9185,VALID,0.100563,VALID,24.0345,VALID,20,VALID,0.412109,
2010-03-07, 01:43:05,VALID,1005.18,VALID,0,VALID,94.9796,VALID,0.100563,VALID,24.0132,VALID,20,VALID,0.264844,
2010-03-07, 01:44:05,VALID,1005.15,VALID,0,VALID,94.9872,VALID,0,VALID,23.9742,VALID,20,VALID,0.158203,
2010-03-07, 01:45:05,VALID,1005.18,VALID,0,VALID,95.0177,VALID,0,VALID,23.9761,VALID,20,VALID,0,
2010-03-07, 01:46:05,VALID,1005.19,VALID,0,VALID,95.0635,VALID,0,VALID,23.9955,VALID,20,VALID,0,
2010-03-07, 01:47:05,VALID,1005.2,VALID,0,VALID,95.094,VALID,0,VALID,23.9955,VALID,20,VALID,0,
2010-03-07, 01:48:05,VALID,1005.26,VALID,0,VALID,95.094,VALID,0,VALID,23.9742,VALID,20,VALID,0,
2010-03-07, 01:49:05,VALID,1005.26,VALID,0,VALID,95.1245,VALID,0,VALID,23.9955,VALID,20,VALID,0,
2010-03-07, 01:50:05,VALID,1005.29,VALID,0,VALID,95.1321,VALID,0,VALID,23.9548,VALID,20,VALID,0,
2010-03-07, 01:51:05,VALID,1005.32,VALID,0,VALID,95.1398,VALID,0,VALID,23.9761,VALID,20,VALID,0,
2010-03-07, 01:52:05,VALID,1005.32,VALID,0,VALID,95.1703,VALID,0,VALID,23.9955,VALID,20,VALID,0,
2010-03-07, 01:53:05,VALID,1005.34,VALID,0,VALID,95.1932,VALID,0.100563,VALID,24.015,VALID,20,VALID,0,
2010-03-07, 01:54:05,VALID,1005.3,VALID,0,VALID,95.2008,VALID,0,VALID,23.9742,VALID,20,VALID,0,
2010-03-07, 01:55:05,VALID,1005.29,VALID,0,VALID,95.2237,VALID,0.100563,VALID,24.015,VALID,20,VALID,0,
2010-03-07, 01:56:05,VALID,1005.26,VALID,0,VALID,95.2313,VALID,0,VALID,24.0345,VALID,20,VALID,0,
2010-03-07, 01:57:05,VALID,1005.27,VALID,0,VALID,95.2695,VALID,0,VALID,24.0345,VALID,20,VALID,0,
2010-03-07, 01:58:05,VALID,1005.26,VALID,0,VALID,95.2695,VALID,0,VALID,24.0345,VALID,20,VALID,0.625,
2010-03-07, 01:59:05,VALID,1005.26,VALID,0,VALID,95.2771,VALID,0,VALID,23.9742,VALID,30,VALID,0.968359,
2010-03-07, 02:00:05,VALID,1005.26,VALID,0,VALID,95.2695,VALID,0,VALID,23.9353,VALID,35,VALID,0.708984,
2010-03-07, 02:01:05,VALID,1005.29,VALID,0,VALID,95.2847,VALID,0.100563,VALID,23.9548,VALID,34,VALID,0.626953,
2010-03-07, 02:02:05,VALID,1005.27,VALID,0,VALID,95.3,VALID,0,VALID,23.9566,VALID,30,VALID,0.612109,
2010-03-07, 02:03:05,VALID,1005.26,VALID,0,VALID,95.2847,VALID,0,VALID,23.9371,VALID,30,VALID,0.575,
2010-03-07, 02:04:05,VALID,1005.26,VALID,0,VALID,95.3152,VALID,0,VALID,23.9159,VALID,30,VALID,0.480469,
2010-03-07, 02:05:05,VALID,1005.27,VALID,0,VALID,95.3305,VALID,0,VALID,23.9353,VALID,31,VALID,0.705078,
2010-03-07, 02:06:05,VALID,1005.27,VALID,0,VALID,95.3305,VALID,0,VALID,23.9371,VALID,31,VALID,0.701953,
2010-03-07, 02:07:05,VALID,1005.28,VALID,0,VALID,95.361,VALID,0,VALID,23.9548,VALID,31,VALID,0.79375,
2010-03-07, 02:08:05,VALID,1005.28,VALID,0,VALID,95.3686,VALID,0,VALID,23.9955,VALID,31,VALID,0.626562,
2010-03-07, 02:09:05,VALID,1005.31,VALID,0,VALID,95.3763,VALID,0,VALID,24.015,VALID,31,VALID,0.459375,
2010-03-07, 02:10:05,VALID,1005.29,VALID,0,VALID,95.3991,VALID,0,VALID,24.015,VALID,31,VALID,0,
2010-03-07, 02:11:05,VALID,1005.3,VALID,0,VALID,95.3839,VALID,0,VALID,23.9937,VALID,31,VALID,0,
2010-03-07, 02:12:05,VALID,1005.29,VALID,0,VALID,95.4068,VALID,0,VALID,23.9742,VALID,31,VALID,0.138281,
2010-03-07, 02:13:05,VALID,1005.26,VALID,0,VALID,95.3991,VALID,0,VALID,23.9353,VALID,31,VALID,0.480469,
2010-03-07, 02:14:05,VALID,1005.26,VALID,0,VALID,95.3991,VALID,0,VALID,23.9159,VALID,31,VALID,0.546875,
2010-03-07, 02:15:05,VALID,1005.23,VALID,0,VALID,95.361,VALID,0,VALID,23.8769,VALID,24,VALID,0.645703,
2010-03-07, 02:16:05,VALID,1005.21,VALID,0,VALID,95.3305,VALID,0,VALID,23.8593,VALID,24,VALID,0.573047,
2010-03-07, 02:17:05,VALID,1005.15,VALID,0,VALID,95.3229,VALID,0,VALID,23.8185,VALID,24,VALID,0.536719,
2010-03-07, 02:18:05,VALID,1005.12,VALID,0,VALID,95.3229,VALID,0,VALID,23.8398,VALID,24,VALID,0.259375,
2010-03-07, 02:19:05,VALID,1005.1,VALID,0,VALID,95.3229,VALID,0,VALID,23.7991,VALID,24,VALID,0.561719,
2010-03-07, 02:20:05,VALID,1005.08,VALID,0,VALID,95.3305,VALID,0,VALID,23.8203,VALID,24,VALID,0.324609,
2010-03-07, 02:21:05,VALID,1005.06,VALID,0,VALID,95.3229,VALID,0,VALID,23.838,VALID,24,VALID,0.000390625,
2010-03-07, 02:22:05,VALID,1005.06,VALID,0,VALID,95.3763,VALID,0,VALID,23.8593,VALID,24,VALID,0.496875,
2010-03-07, 02:23:05,VALID,1005.06,VALID,0,VALID,95.3991,VALID,0,VALID,23.8398,VALID,24,VALID,0.566797,
2010-03-07, 02:24:05,VALID,1005.03,VALID,0,VALID,95.3763,VALID,0.100563,VALID,23.8203,VALID,24,VALID,0.316406,
2010-03-07, 02:25:05,VALID,1005.02,VALID,0,VALID,95.3839,VALID,0,VALID,23.8009,VALID,24,VALID,0.692187,
2010-03-07, 02:26:05,VALID,1005.02,VALID,0,VALID,95.3991,VALID,0,VALID,23.8203,VALID,24,VALID,0.567969,
2010-03-07, 02:27:05,VALID,1004.99,VALID,0,VALID,95.3915,VALID,0,VALID,23.7601,VALID,24,VALID,0.522656,
2010-03-07, 02:28:05,VALID,1004.97,VALID,0,VALID,95.3991,VALID,0,VALID,23.7619,VALID,22,VALID,0.546875,
2010-03-07, 02:29:05,VALID,1004.98,VALID,0,VALID,95.422,VALID,0,VALID,23.7212,VALID,20,VALID,0.336719,
2010-03-07, 02:30:05,VALID,1004.93,VALID,0,VALID,95.422,VALID,0.100563,VALID,23.7,VALID,20,VALID,0.3,
2010-03-07, 02:31:05,VALID,1004.92,VALID,0,VALID,95.422,VALID,0.100563,VALID,23.723,VALID,20,VALID,0.310937,
2010-03-07, 02:32:05,VALID,1004.97,VALID,0,VALID,95.4373,VALID,0,VALID,23.7017,VALID,20,VALID,0.529688,
2010-03-07, 02:33:05,VALID,1005.04,VALID,0,VALID,95.4526,VALID,0.100563,VALID,23.6823,VALID,20,VALID,0.479297,
2010-03-07, 02:34:05,VALID,1005.01,VALID,0,VALID,95.4526,VALID,0,VALID,23.6823,VALID,20,VALID,0.515234,
2010-03-07, 02:35:05,VALID,1005.04,VALID,0,VALID,95.4602,VALID,0,VALID,23.6823,VALID,16,VALID,0.294922,
2010-03-07, 02:36:05,VALID,1005.04,VALID,0,VALID,95.4907,VALID,0.100563,VALID,23.7212,VALID,17,VALID,0,
2010-03-07, 02:37:05,VALID,1004.99,VALID,0,VALID,95.4907,VALID,0,VALID,23.7425,VALID,16,VALID,0,
2010-03-07, 02:38:05,VALID,1004.95,VALID,0,VALID,95.5136,VALID,0.100563,VALID,23.7619,VALID,16,VALID,0,
2010-03-07, 02:39:05,VALID,1004.95,VALID,0,VALID,95.5212,VALID,0.100563,VALID,23.7796,VALID,11,VALID,0,
2010-03-07, 02:40:05,VALID,1004.91,VALID,0,VALID,95.5136,VALID,0.100563,VALID,23.838,VALID,352,VALID,0.517969,
2010-03-07, 02:41:05,VALID,1004.91,VALID,0,VALID,95.5441,VALID,0.100563,VALID,23.8769,VALID,352,VALID,0.117188,
2010-03-07, 02:42:05,VALID,1004.91,VALID,0,VALID,95.5365,VALID,0.100563,VALID,23.9159,VALID,344,VALID,0.517187,
2010-03-07, 02:43:05,VALID,1004.9,VALID,0,VALID,95.5365,VALID,0,VALID,23.9566,VALID,342,VALID,0.477734,
2010-03-07, 02:44:05,VALID,1004.86,VALID,0,VALID,95.5517,VALID,0,VALID,23.9937,VALID,340,VALID,0.15625,
2010-03-07, 02:45:05,VALID,1004.86,VALID,0,VALID,95.5594,VALID,0,VALID,24.015,VALID,348,VALID,0.695313,
2010-03-07, 02:46:05,VALID,1004.82,VALID,0,VALID,95.5441,VALID,0,VALID,24.0539,VALID,354,VALID,0.527344,
2010-03-07, 02:47:05,VALID,1004.8,VALID,0,VALID,95.5441,VALID,0,VALID,24.0734,VALID,4,VALID,0.642969,
2010-03-07, 02:48:05,VALID,1004.8,VALID,0,VALID,95.4907,VALID,0,VALID,24.0929,VALID,13,VALID,0.555859,
2010-03-07, 02:49:05,VALID,1004.82,VALID,0,VALID,95.4373,VALID,0,VALID,24.091,VALID,11,VALID,0.110547,
2010-03-07, 02:50:05,VALID,1004.84,VALID,0,VALID,95.3991,VALID,0,VALID,24.1726,VALID,306,VALID,0.0257812,
2010-03-07, 02:51:05,VALID,1004.85,VALID,0,VALID,95.3152,VALID,0,VALID,24.1318,VALID,306,VALID,0.163672,
2010-03-07, 02:52:05,VALID,1004.84,VALID,0,VALID,95.2466,VALID,0,VALID,24.1123,VALID,306,VALID,0,
2010-03-07, 02:53:04,VALID,1004.87,VALID,0,VALID,95.1703,VALID,0,VALID,24.1513,VALID,309,VALID,0.184766,
2010-03-07, 02:54:04,VALID,1004.88,VALID,0,VALID,95.1093,VALID,0,VALID,24.1707,VALID,3,VALID,0.0167969,
2010-03-07, 02:55:04,VALID,1004.85,VALID,0,VALID,95.033,VALID,0,VALID,24.1707,VALID,360,VALID,0.317969,
2010-03-07, 02:56:04,VALID,1004.87,VALID,0,VALID,94.949,VALID,0,VALID,24.2097,VALID,18,VALID,0.335938,
2010-03-07, 02:57:04,VALID,1004.85,VALID,0,VALID,94.8651,VALID,0,VALID,24.2078,VALID,26,VALID,0.15625,
2010-03-07, 02:58:04,VALID,1004.83,VALID,0,VALID,94.766,VALID,0,VALID,24.2291,VALID,26,VALID,0.0792969,
2010-03-07, 02:59:04,VALID,1004.82,VALID,0,VALID,94.6515,VALID,0,VALID,24.2681,VALID,352,VALID,0.484766,
2010-03-07, 03:00:04,VALID,1004.79,VALID,0,VALID,94.5523,VALID,0,VALID,24.3265,VALID,352,VALID,0.658203,
2010-03-07, 03:01:04,VALID,1004.81,VALID,0,VALID,94.3769,VALID,0,VALID,24.4062,VALID,352,VALID,0.151953,
2010-03-07, 03:02:04,VALID,1004.83,VALID,0,VALID,94.148,VALID,0,VALID,24.4238,VALID,349,VALID,0.440234,
2010-03-07, 03:03:04,VALID,1004.83,VALID,0,VALID,93.8657,VALID,0,VALID,24.4433,VALID,349,VALID,0,
2010-03-07, 03:04:04,VALID,1004.87,VALID,0,VALID,93.6216,VALID,0,VALID,24.4628,VALID,349,VALID,0.242969,
2010-03-07, 03:05:04,VALID,1004.86,VALID,0,VALID,93.4233,VALID,0,VALID,24.4628,VALID,349,VALID,0.308594,
2010-03-07, 03:06:04,VALID,1004.85,VALID,0,VALID,93.2783,VALID,0,VALID,24.4628,VALID,349,VALID,0,
2010-03-07, 03:07:04,VALID,1004.87,VALID,0,VALID,93.1639,VALID,0,VALID,24.4414,VALID,349,VALID,0,
2010-03-07, 03:08:04,VALID,1004.88,VALID,0,VALID,93.0952,VALID,0,VALID,24.4646,VALID,349,VALID,0,
2010-03-07, 03:09:04,VALID,1004.88,VALID,0,VALID,93.0647,VALID,0,VALID,24.4238,VALID,349,VALID,0,
2010-03-07, 03:10:04,VALID,1004.91,VALID,0,VALID,93.0876,VALID,0,VALID,24.4043,VALID,349,VALID,0,
2010-03-07, 03:11:04,VALID,1004.94,VALID,0,VALID,93.1334,VALID,0,VALID,24.3849,VALID,349,VALID,0.0300781,
2010-03-07, 03:12:04,VALID,1004.94,VALID,0,VALID,93.2478,VALID,0,VALID,24.3636,VALID,349,VALID,0.200781,
2010-03-07, 03:13:04,VALID,1004.93,VALID,0,VALID,93.2783,VALID,0,VALID,24.3654,VALID,349,VALID,0,
2010-03-07, 03:14:04,VALID,1004.94,VALID,0,VALID,93.3317,VALID,0,VALID,24.3654,VALID,349,VALID,0.00234375,
2010-03-07, 03:15:04,VALID,1004.93,VALID,0,VALID,93.2707,VALID,0,VALID,24.307,VALID,349,VALID,0.167578,
2010-03-07, 03:16:04,VALID,1004.91,VALID,0,VALID,93.3241,VALID,0,VALID,24.2875,VALID,349,VALID,0.180469,
2010-03-07, 03:17:04,VALID,1004.9,VALID,0,VALID,93.408,VALID,0,VALID,24.2681,VALID,349,VALID,0,
2010-03-07, 03:18:04,VALID,1004.91,VALID,0,VALID,93.5148,VALID,0,VALID,24.2699,VALID,349,VALID,0,
2010-03-07, 03:19:04,VALID,1004.91,VALID,0,VALID,93.614,VALID,0,VALID,24.2291,VALID,349,VALID,0,
2010-03-07, 03:20:04,VALID,1004.92,VALID,0,VALID,93.6674,VALID,0,VALID,24.2097,VALID,349,VALID,0,
2010-03-07, 03:21:04,VALID,1004.91,VALID,0,VALID,93.7208,VALID,0,VALID,24.1902,VALID,349,VALID,0,
2010-03-07, 03:22:04,VALID,1004.92,VALID,0,VALID,93.7742,VALID,0,VALID,24.1513,VALID,349,VALID,0,
2010-03-07, 03:23:04,VALID,1004.93,VALID,0,VALID,93.8276,VALID,0,VALID,24.1318,VALID,349,VALID,0,
2010-03-07, 03:24:04,VALID,1004.95,VALID,0,VALID,93.8581,VALID,0,VALID,24.0929,VALID,349,VALID,0.407813,
2010-03-07, 03:25:04,VALID,1004.92,VALID,0,VALID,93.7666,VALID,0,VALID,24.0345,VALID,349,VALID,0.402344,
2010-03-07, 03:26:04,VALID,1004.92,VALID,0,VALID,93.6521,VALID,0,VALID,23.9371,VALID,349,VALID,0.574609,
2010-03-07, 03:27:04,VALID,1004.94,VALID,0,VALID,93.6903,VALID,0,VALID,23.8398,VALID,349,VALID,0.337109,
2010-03-07, 03:28:04,VALID,1004.94,VALID,0,VALID,93.7818,VALID,0,VALID,23.8203,VALID,349,VALID,0.546484,
2010-03-07, 03:29:04,VALID,1004.99,VALID,0,VALID,93.9115,VALID,0,VALID,23.7619,VALID,349,VALID,0.526563,
2010-03-07, 03:30:04,VALID,1005.02,VALID,0,VALID,94.0336,VALID,0.100563,VALID,23.7407,VALID,349,VALID,0.532422,
2010-03-07, 03:31:04,VALID,1005.06,VALID,0,VALID,94.1633,VALID,0,VALID,23.6823,VALID,349,VALID,0.521875,
2010-03-07, 03:32:04,VALID,1005.06,VALID,0,VALID,94.2701,VALID,0.100563,VALID,23.6628,VALID,349,VALID,0.504297,
2010-03-07, 03:33:04,VALID,1005.09,VALID,0,VALID,94.354,VALID,0.100563,VALID,23.6026,VALID,349,VALID,0.429297,
2010-03-07, 03:34:04,VALID,1005.09,VALID,0,VALID,94.4303,VALID,0.100563,VALID,23.6062,VALID,349,VALID,0.386328,
2010-03-07, 03:35:04,VALID,1005.1,VALID,0,VALID,94.5142,VALID,0.100563,VALID,23.5655,VALID,349,VALID,0.308594,
2010-03-07, 03:36:04,VALID,1005.09,VALID,0,VALID,94.6515,VALID,0.100563,VALID,23.6044,VALID,349,VALID,0.323828,
2010-03-07, 03:37:04,VALID,1005.1,VALID,0,VALID,94.8194,VALID,0,VALID,23.6434,VALID,349,VALID,0.445313,
2010-03-07, 03:38:04,VALID,1005.11,VALID,0,VALID,94.9109,VALID,0,VALID,23.6823,VALID,349,VALID,0.490625,
2010-03-07, 03:39:04,VALID,1005.12,VALID,0,VALID,95.0024,VALID,0,VALID,23.7212,VALID,349,VALID,0.452344,
2010-03-07, 03:40:04,VALID,1005.13,VALID,0,VALID,95.0635,VALID,0.100563,VALID,23.7601,VALID,349,VALID,0.366797,
2010-03-07, 03:41:04,VALID,1005.15,VALID,0,VALID,95.094,VALID,0.100563,VALID,23.7796,VALID,349,VALID,0.316797,
2010-03-07, 03:42:04,VALID,1005.17,VALID,0,VALID,95.1474,VALID,0.100563,VALID,23.7796,VALID,349,VALID,0.492188,
2010-03-07, 03:43:04,VALID,1005.17,VALID,0,VALID,95.1627,VALID,0,VALID,23.7796,VALID,349,VALID,0.311328,
2010-03-07, 03:44:04,VALID,1005.17,VALID,0,VALID,95.1779,VALID,0.100563,VALID,23.7991,VALID,349,VALID,0.130469,
2010-03-07, 03:45:04,VALID,1005.22,VALID,0,VALID,95.1779,VALID,0.100563,VALID,23.7601,VALID,349,VALID,0,
2010-03-07, 03:46:04,VALID,1005.22,VALID,0,VALID,95.2008,VALID,0.100563,VALID,23.7814,VALID,349,VALID,0,
2010-03-07, 03:47:04,VALID,1005.24,VALID,0,VALID,95.1932,VALID,0,VALID,23.7407,VALID,349,VALID,0.025,
2010-03-07, 03:48:04,VALID,1005.22,VALID,0,VALID,95.2008,VALID,0,VALID,23.7814,VALID,349,VALID,0.31875,